Change the Weather History Date:

Wednesday, August 28, 2013

  Actual Average Record
Temperature  
Mean Temperature 71 °F -  
Max Temperature 78 °F 73 °F 84 °F (1999)
Min Temperature 64 °F 63 °F 62 °F (1998)
Cooling Degree Days 6    
Growing Degree Days 21 (Base 50)    
Moisture  
Dew Point 62 °F    
Average Humidity 71    
Maximum Humidity 88    
Minimum Humidity 56    
Precipitation  
Precipitation 0.00 in 0.07 in - ()
Sea Level Pressure  
Sea Level Pressure 29.90 in    
Wind  
Wind Speed 10 mph ()    
Max Wind Speed 25 mph    
Max Gust Speed -    
Visibility 12.0 miles    
Events      
Averages and records for this station are not official NWS values.
T = Trace of Precipitation, MM = Missing Value Source: Averaged Metar Reports

Daily Weather History Graph

Daily Weather History Graph

Search for Another Location

Airport or City:

Trip Planner

Search our weather history database for the weather conditions in past years. The results will help you decide how hot, cold, wet, or windy it might be!

Date:

Astronomy

Aug. 28, 2013 Rise Set
Actual Time 6:46 AM CEST 8:10 PM CEST
Civil Twilight 6:16 AM CEST 8:40 PM CEST
Nautical Twilight 5:39 AM CEST 9:16 PM CEST
Astronomical Twilight 5:01 AM CEST 9:54 PM CEST
Moon No Moon Rise 2:38 PM CEST (8/28)
Length of Visible Light 14h 24m
Length of Day
13h 24m
Waning Gibbous, 50% of the Moon is Illuminated
Aug 28
Waning Gibbous
Sep 5
New
Sep 12
First Quarter
Sep 19
Full
Sep 27
Last Quarter

Hourly Weather History & Observations

Time (CEST) Temp. Dew Point Humidity Pressure Visibility Wind Dir Wind Speed Gust Speed Precip Events Conditions
12:00 AM 66 °F 60 °F 74% 29.84 in 12 mi North 13.4 mph - -   Scattered Clouds
12:55 AM 66.2 °F 59.0 °F 78% 29.86 in - North 8.1 mph - N/A   Clear
1:00 AM 67 °F 60 °F 70% 29.85 in 12 mi North 15.7 mph - -   Scattered Clouds
1:55 AM 66.2 °F 60.8 °F 83% 29.86 in - North 6.9 mph - N/A   Clear
2:00 AM 67 °F 60 °F 73% 29.85 in 12 mi North 13.4 mph - -   Partly Cloudy
2:55 AM 66.2 °F 59.0 °F 78% 29.86 in - North 8.1 mph - N/A   Clear
3:00 AM 67 °F 60 °F 72% 29.84 in 12 mi North 15.7 mph - -  
3:55 AM 66.2 °F 57.2 °F 73% 29.86 in - North 6.9 mph - N/A   Clear
4:00 AM 67 °F 58 °F 65% 29.85 in 12 mi North 6.9 mph - -  
4:55 AM 66.2 °F 57.2 °F 73% 29.86 in - North 10.4 mph - N/A   Clear
5:55 AM 66.2 °F 60.8 °F 83% 29.86 in - North 11.5 mph - N/A   Clear
6:55 AM 66.2 °F 62.6 °F 88% 29.86 in - North 11.5 mph - N/A   Clear
7:00 AM 66 °F 62 °F 82% 29.85 in 12 mi North 11.5 mph - -  
7:55 AM 66.2 °F 60.8 °F 83% 29.86 in - North 11.5 mph - N/A   Clear
8:00 AM 66 °F 62 °F 81% 29.85 in 12 mi North 22.4 mph - -  
8:55 AM 68.0 °F 60.8 °F 78% 29.89 in - NNE 8.1 mph - N/A   Clear
9:00 AM 68 °F 61 °F 73% 29.87 in 12 mi NNE 8.1 mph - -  
9:55 AM 71.6 °F 60.8 °F 69% 29.89 in - NNE 8.1 mph - N/A   Clear
10:00 AM 72 °F 61 °F 61% 29.89 in 12 mi NNE 8.1 mph - -  
10:55 AM 75.2 °F 62.6 °F 65% 29.92 in - NNE 9.2 mph - N/A   Clear
11:00 AM 75 °F 63 °F 58% 29.90 in 12 mi NNE 9.2 mph - -  
11:55 AM 77.0 °F 64.4 °F 65% 29.92 in - NNE 9.2 mph - N/A   Clear
12:00 PM 77 °F 65 °F 57% 29.90 in 12 mi NNE 17.9 mph - -  
12:55 PM 77.0 °F 64.4 °F 65% 29.92 in - NE 9.2 mph - N/A   Clear
1:00 PM 77 °F 65 °F 57% 29.90 in 12 mi NE 17.9 mph - -  
1:55 PM 78.8 °F 66.2 °F 65% 29.92 in - NE 9.2 mph - N/A   Clear
2:00 PM 78 °F 66 °F 58% 29.90 in 12 mi NE 9.2 mph - -  
2:55 PM 77.0 °F 62.6 °F 61% 29.92 in - SE 5.8 mph - N/A   Clear
3:00 PM 76 °F 63 °F 56% 29.91 in 12 mi SE 5.8 mph - -  
3:55 PM 77.0 °F 64.4 °F 65% 29.92 in - South 9.2 mph - N/A   Clear
4:55 PM 77.0 °F 64.4 °F 65% 29.92 in - SSW 12.7 mph - N/A   Clear
5:55 PM 75.2 °F 66.2 °F 73% 29.92 in - SSW 13.8 mph - N/A   Clear
6:00 PM 76 °F 66 °F 63% 29.90 in 12 mi SSW 13.8 mph - -   Clear
6:55 PM 75.2 °F 64.4 °F 69% 29.92 in - SW 12.7 mph - N/A   Clear
7:00 PM 75 °F 65 °F 63% 29.90 in 12 mi SW 24.6 mph - -   Clear
7:55 PM 73.4 °F 64.4 °F 73% 29.92 in - SW 12.7 mph - N/A   Clear
8:00 PM 73 °F 65 °F 70% 29.91 in 12 mi SW 24.6 mph - -   Clear
8:55 PM 71.6 °F 64.4 °F 78% 29.95 in - SW 12.7 mph - N/A   Clear
9:00 PM 71 °F 65 °F 76% 29.94 in 12 mi SW 24.6 mph - -   Clear
9:55 PM 69.8 °F 62.6 °F 78% 29.98 in - SW 6.9 mph - N/A   Clear
10:00 PM 70 °F 63 °F 72% 29.96 in 12 mi SW 6.9 mph - -  
10:55 PM 69.8 °F 62.6 °F 78% 29.98 in - North 3.5 mph - N/A   Clear
11:55 PM 69.8 °F 64.4 °F 83% 30.01 in - North 8.1 mph - N/A   Clear